Location: �terpigny
(49.8910°N, 2.9249°E)
Time: 14:05:33
(UTC+00:00)

Cosmos 2219 Rocket - Pass Details

Date: 24 October 2021
Orbit: 827 x 848 km, 71.0° (Epoch: 28 November)

Event Time Altitude Azimuth Distance (km) Brightness Sun altitude
Rises 18:11:51 0° 160° (SSE) 3,355 5.1 -15.5°
Reaches altitude 10° 18:14:57 10° 142° (SE) 2,429 4.2 -16.0°
Enters shadow 18:15:27 12° 138° (SE) 2,306 4.1 -16.1°
